Regional Weather Roundup
Issued by NWS

Home | Current Version | Previous Version | Graphics & Text | Print | Product List | Glossary On
Versions: 1 2 3 4 5 6 7 8 9 10 11 12 13 14 15 16 17 18 19 20 21 22 23 24 25 26 27 28 29 30 31 32 33 34 35 36 37 38 39 40 41 42 43 44 45 46 47 48 49 50
963
ASUS43 KDMX 260001
RWRIA

WEATHER ROUNDUP FOR IOWA
NATIONAL WEATHER SERVICE DES MOINES IA
700 PM CDT THU MAY 25 2017

NOTE: "FAIR" INDICATES FEW OR NO CLOUDS BELOW 12,000 FEET WITH NO
SIGNIFICANT WEATHER AND/OR OBSTRUCTIONS TO VISIBILITY.

* - THESE STATIONS ARE NOT NWS STATIONS...THUS NOT UNDER NWS
QUALITY CONTROL.  THEY ALSO DO NOT REPORT WEATHER SUCH
AS PRECIPITATION OR FOG.

IAZ001>003-012>014-020>022-031>034-043>046-260100-
   NORTHWEST IOWA

CITY           SKY/WX    TMP DP  RH WIND       PRES   REMARKS
CARROLL *      PTSUNNY   72  54  53 SE22      29.56F
CHEROKEE *     CLOUDY    70  55  58 CALM      29.59S
DENISON *      MOSUNNY   70  52  52 VRB6G14   29.58R
LE MARS *      CLOUDY    73  52  46 S9        29.58S
ORANGE CITY *  PTSUNNY   72  52  49 S5        29.59S
SHELDON *      CLOUDY    70  50  49 CALM      29.58S
SIOUX CITY     PTSUNNY   73  54  51 SE7       29.56R
6HR MIN TEMP:  69; 6HR MAX TEMP:  74; 6HR PCP: TRACE;

SPENCER        CLOUDY    68  56  65 SE3       29.60R
6HR MIN TEMP:  68; 6HR MAX TEMP:  74; 6HR PCP: TRACE;

STORM LAKE *   CLOUDY    68  50  52 SE6       29.58R
$$

IAZ055>058-069>071-079>083-090>094-260100-
   SOUTHWEST IOWA

CITY           SKY/WX    TMP DP  RH WIND       PRES   REMARKS
ATLANTIC *     MOSUNNY   72  52  49 SE14G20   29.57F
AUDUBON *      MOSUNNY   70  55  60 SE10      29.57F
CLARINDA *     CLOUDY    73  54  49 SE10      29.60S
COUNCIL BLFS * PTSUNNY   72  54  53 S12G18    29.56R
CRESTON *      MOSUNNY   70  52  52 SE15      29.62F
HARLAN  *      MOSUNNY   72  52  49 SE14      29.59R
LAMONI         SUNNY     69  52  54 SE9       29.62R
6HR MIN TEMP:  67; 6HR MAX TEMP:  73;

RED OAK *      CLOUDY    73  54  49 SE14      29.57S
SHENANDOAH *   MOSUNNY   75  54  46 SE16G22   29.56F
$$

IAZ047>049-059>061-072>074-084-260100-
   CENTRAL IOWA

CITY           SKY/WX    TMP DP  RH WIND       PRES   REMARKS
AMES           SUNNY     69  51  52 SE9       29.62S
6HR MIN TEMP:  67; 6HR MAX TEMP:  72;

ANKENY *       SUNNY     72  50  46 SE9       29.64R
BOONE *        SUNNY     70  52  52 SE10      29.62R
CHARITON *     SUNNY     70  52  52 SE13      29.63R
DES MOINES     CLOUDY    72  49  44 S8        29.64R
6HR MIN TEMP:  69; 6HR MAX TEMP:  75;

GRINNELL*      MOSUNNY   71  48  43 SE10      29.66S
KNOXVILLE *    MOSUNNY   72  48  43 S12       29.63R
MARSHALLTOWN   MOSUNNY   71  49  45 S9        29.63S
6HR MIN TEMP:  66; 6HR MAX TEMP:  72; 6HR PCP: TRACE;

NEWTON *       SUNNY     72  48  43 SE13      29.63S
PERRY *          N/A     71  47  42 SE14      29.61R
$$

IAZ004>006-015-016-023>025-035-036-260100-
   NORTH CENTRAL IOWA

CITY           SKY/WX    TMP DP  RH WIND       PRES   REMARKS
ALGONA *       PTSUNNY   68  50  52 SE12      29.60F
CLARION *      MOSUNNY   70  48  46 S13       29.63R
ESTHERVILLE    LGT RAIN  63  55  75 SE8       29.61R
6HR MIN TEMP:  63; 6HR MAX TEMP:  70; 6HR PCP: TRACE;

FORT DODGE *   CLOUDY    68  50  52 SE12      29.60F
MASON CITY     MOSUNNY   65  51  60 S7        29.66R
6HR MIN TEMP:  64; 6HR MAX TEMP:  70; 6HR PCP: TRACE;

FOREST CITY *    N/A     66  43  42 SE9       29.64S
WEBSTER CITY * MOSUNNY   70  50  49 S15       29.61R
$$

IAZ007>011-017>019-026>030-037>042-050>054-066-260100-
   NORTHEAST IOWA

CITY           SKY/WX    TMP DP  RH WIND       PRES   REMARKS
CEDAR RAPIDS   SUNNY     70  50  49 SE7       29.66S
6HR MIN TEMP:  65; 6HR MAX TEMP:  71;

CHARLES CITY * CLOUDY    68  48  49 SE7       29.66S
CLINTON *      SUNNY     68  55  63 E5        29.71R
DUBUQUE        SUNNY     68  51  54 CALM      29.69S
6HR MIN TEMP:  61; 6HR MAX TEMP:  70;

MONTICELLO *   PTSUNNY   72  52  49 E6        29.68R
OELWEIN *      SUNNY     70  48  46 SE8       29.67S
WATERLOO       SUNNY     70  45  40 S8        29.64S
6HR MIN TEMP:  66; 6HR MAX TEMP:  73;

$$

IAZ064-065-067-068-078-260100-
   EAST CENTRAL IOWA

CITY           SKY/WX    TMP DP  RH WIND       PRES   REMARKS
DAVENPORT      MOSUNNY   68  54  60 E6        29.69R
6HR MIN TEMP:  65; 6HR MAX TEMP:  73;

IOWA CITY      SUNNY     72  51  47 S3        29.68R
6HR MIN TEMP:  68; 6HR MAX TEMP:  74;

MT. PLEASANT * SUNNY     70  49  46 S7        29.68S
MUSCATINE *    SUNNY     73  50  43 CALM      29.68R
QUAD CITIES    SUNNY     72  52  49 NE6       29.68R
6HR MIN TEMP:  68; 6HR MAX TEMP:  74;

$$

IAZ062-063-075>077-085>089-095>099-260100-
   SOUTHEAST IOWA

CITY           SKY/WX    TMP DP  RH WIND       PRES   REMARKS
BURLINGTON     SUNNY     71  52  50 S6        29.68S
6HR MIN TEMP:  68; 6HR MAX TEMP:  72;

FAIRFIELD *    MOSUNNY   72  48  43 S8        29.67S
FORT MADISON * SUNNY     72  52  49 SW3       29.70R
KEOKUK *       SUNNY     72  50  46 S6        29.68R
OSKALOOSA *      N/A     72  48  42 SE9       29.65S
OTTUMWA        SUNNY     70  50  49 SE12      29.65S
6HR MIN TEMP:  68; 6HR MAX TEMP:  73;

WASHINGTON *   SUNNY     72  50  46 S6        29.68F
$$

ABBREVIATIONS USED IN REMARKS
   TC - TEMPERATURES IN CELSIUS
  WCI - WIND CHILL INDEX
   HX - HEAT INDEX
  VSB - VISIBILITY
$$





USA.gov is the U.S. government's official web portal to all federal, state and local government web resources and services.